Regional Weather Roundup
Issued by NWS Charleston, WV

Home | Current Version | Previous Version | Text Only | Print | Product List | Glossary Off
Versions: 1 2 3 4 5 6 7 8 9 10 11 12 13 14 15 16 17 18 19 20 21 22 23 24 25 26 27 28

000
ASUS41 KRLX 112110
RWRRLX
West Virginia Regional Weather Roundup
National Weather Service Charleston WV
400 PM EST MON DEC 11 2017

Note: "fair" indicates few or no clouds below 12,000 feet with no
significant weather and/or obstructions to visibility.

WVZ003-112200-
Northern Panhandle of West Virginia

CITY           SKY/WX    TMP DP  RH WIND       PRES   REMARKS
WHEELING       CLOUDY    37  20  50 S7        29.86F
$$

WVZ009-112200-
Northwest West Virginia

CITY           SKY/WX    TMP DP  RH WIND       PRES   REMARKS
PARKERSBURG    MOCLDY    43  24  47 S9        29.90F
$$

WVZ006-112200-
Western West Virginia

CITY           SKY/WX    TMP DP  RH WIND       PRES   REMARKS
HUNTINGTON     SUNNY     50  24  36 SW9       29.85F
$$

WVZ015-112200-
West Central West Virginia

CITY           SKY/WX    TMP DP  RH WIND       PRES   REMARKS
CHARLESTON     PTCLDY    49  24  37 S10       29.86F
$$

WVZ022-031-112200-
North Central West Virginia

CITY           SKY/WX    TMP DP  RH WIND       PRES   REMARKS
CLARKSBURG     CLEAR     43  22  43 S8        29.88F
MORGANTOWN     CLOUDY    42  20  41 VRB6      29.89F
$$

WVZ025-035-042-045-112200-
Southern West Virginia

CITY           SKY/WX    TMP DP  RH WIND       PRES   REMARKS
BECKLEY        CLEAR     46  21  37 SW9       29.88F
LOGAN            N/A     50  25  37 CALM      29.86F
BLUEFIELD      SUNNY     46  21  37 SW9       29.90F
LEWISBURG      CLEAR     46  25  44 S6        29.90F
$$

WVZ047-112200-
Northern Mountains of West Virginia

CITY           SKY/WX    TMP DP  RH WIND       PRES   REMARKS
ELKINS         PTCLDY    44  19  36 S7        29.85F
$$

WVZ052-112200-
Eastern Panhandle of West Virginia

CITY           SKY/WX    TMP DP  RH WIND       PRES   REMARKS
MARTINSBURG    CLOUDY    45  22  40 S6        29.93F
PETERSBURG     CLOUDY    47  22  37 CALM      29.88F
$$




USA.gov is the U.S. government's official web portal to all federal, state and local government web resources and services.